Погода Мыс Шведский

Погода Мыс Шведский : погода сейчас, прогноз погоды и архив. Всё, что Вы хотите узнать о погоде Мыс Шведский!

Хотите узнать прогноз погоды Мыс Шведский? Тогда Вам сюда: Погода Мыс Шведский

Поиск расширенной информации на нашем сайте:

Другие новости

Новости СМИ2

Главная страница сайта

Новости сайта

03.07.2017

Напоминаем, что на нашем специализированном сайте Метеоцентр.Азия вы можете получить высокодетализированные автоматические прогнозы погоды по пунктам России, СНГ и мира в авиационном формате (включающие направление и скорость ветра, видимость, явления погоды, количество и форму облачности, нижнюю и верхнюю границу облачности).

Рекомендуем: Радуга бисера кроше наборы для вышивания бисером иконы.

Погода Мыс Шведский - сегодня

Время (UTC), дата Ветер
(°,м/с) 
Видим.   Явления Облачность Т
(°С)
Тd
(°С)
f(%) Тe
(°С)
Pmin
(гПа)
dP
(гПа)
Po
(мм)
O2
(г/м3)
Тmin Tmax R s Состояние
почвы
03 09.12.17 180 (Ю) 10 км    10/10 300 м 
[Sc]
-10.9 -11.5 95 -16  1012.2  0.5  758  319  -11.3    0.3     
09 09.12.17 190 (Ю) 10 км    10/10 600 м 
[Sc]
-9.3 -10 95 -12  1014.5  1.2  760  318           
12 09.12.17 190 (Ю) 10 км    10/10 600 м 
[Sc]
-9 -9.7 95 -11  1015.3  0.8  761  318           
15 09.12.17 190 (Ю) 4000 м  слаб. ливневой снег  10/10 300 м кучево-дожд. 
[Cb cap]
-8.9 -9.6 95 -11  1016.1  0.8  761  318    -8.8  0.0     
18 09.12.17 190 (Ю) 4000 м  слаб. ливневой снег  10/10 300 м кучево-дожд. 
[Cb cap]
-8.8 -9.9 92 -12  1017.1  762  318           
21 09.12.17 200 (Ю) 10 км  {ливн. осадки}  8/8 300 м 
[Sc]
-14.4 -15 95 -19  1017.7  0.6  763  326           
00 10.12.17 210 (ЮЗ) 0200 м  переохл. туман{ливн. осадки}  ?/?  
-10.1 -10.1 100 -13  1018.7  763  320           
03 10.12.17 210 (ЮЗ) 0200 м  переохл. туман  ?/?  
-13.5 -13.5 100 -16  1019.9  1.2  764  325  -14.4    0.2     
06 10.12.17 210 (ЮЗ) 0200 м  переохл. туман  10/10 300 м 
[Sc]
-13.9 -13.9 100 -16  1021.1  1.2  765  326           
12 10.12.17 200 (Ю) 0200 м  переохл. туман  ?/?  
-12.4 -12.4 100 -16  1023.3  0.9  767  325           
15 10.12.17 190 (Ю) 10 км  в посл. час туман [диам. изморози 60 мм]  ясно 
-18.5 -19.7 90 -21  1024.7  1.4  768  333    -12       
18 10.12.17 180 (Ю) 20000 м  {туман} [диам. изморози 60 мм]  ясно 
-18 -19.2 90 -18  1024.7  768  333           
21 10.12.17 190 (Ю) 10 км    4/0 верхняя 
[Cs]
-16.2 -17.5 90 -22  1025.6  0.9  769  331           
00 11.12.17 180 (Ю) 10 км    3/0 верхняя 
[Cs]
-15 -16.3 90 -21  1024.8  -0.8  768  329           
03 11.12.17 170 (Ю) 8-10{10}  10 км  позёмок  3/1 300 м верхняя 
[Sc|Cs]
-15.2 -16.5 90 -23  1023.9  -0.9  767  329  -18         
06 11.12.17 170 (Ю) 10-12{12}  10 км  позёмок  9/9 600 м 
[Sc]
-12.7 -14.6 86 -21  1023.3  -0.6  767  325           
09 11.12.17 180 (Ю) 9-12{13}  10 км  позёмок  10/10 600 м 
[Sc]
-10.9 -12.2 90 -18  1022.6  -0.7  766  323           
12 11.12.17 180 (Ю) 8{12}  2000 м  позёмок  10/10 300 м 
[Sc]
-10 -11.2 91 -16  1021.8  -0.8  766  321           
15 11.12.17 190 (Ю) 11-13{13}  2000 м  метель  10/10 300 м 
[Sc]
-8.3 -9.3 92 -15  1020.9  -0.9  765  319    -8.3       
18 11.12.17 200 (Ю) 8-10{13}  10 км  позёмок  10/10 600 м 
[Sc]
-7.4 -8.3 93 -13  1020.3  -0.6  765  318           
21 11.12.17 190 (Ю) 9-11{11}  10 км  позёмок  10/10 600 м 
[Sc]
-6.2 -7.4 91 -12  1020.2  -0.1  764  316           
00 12.12.17 200 (Ю) 12-16{16}  2000 м  метель  9/9 600 м 
[Sc]
-5.3 -6.7 90 -12  1019.5  -0.7  764  315           
03 12.12.17 200 (Ю) 11-13{16}  2000 м  метель  8/8 600 м 
[Sc]
-6.4 -8 88 -13  1019.3  -0.2  764  316  -8.4         
06 12.12.17 200 (Ю) 10-12{14}  2000 м  метель  9/9 600 м 
[Sc]
-6.5 -7.7 91 -13  1019.9  0.6  764  316           
09 12.12.17 200 (Ю) 10-12{14}  10 км  позёмок  8/8 600 м 
[Sc]
-6.8 -8 91 -13  1020  0.1  764  317           
Время (UTC), дата Ветер
(°,м/с) 
Видим.   Явления Облачность Т
(°С)
Тd
(°С)
f(%) Тe
(°С)
Pmin
(гПа)
dP
(гПа)
Po
(мм)
O2
(г/м3)
Тmin Tmax R s Состояние
почвы

Для получения пояснительной информации подведите курсор к названию столбца.

ПОГОДА Мыс Шведский - архив

Всё, что Вы хотите узнать о погоде Мыс Шведский - удобно и подробно!

Выберите нужную дату (начиная с 1 января 2015* года) и нажмите кнопку "Найти".
Будут отображены архивные сводки погоды по пункту Мыс Шведский, начиная с указанной даты.


Отображать данные в формате CSV (для использования в таблицах Excel)


Внимание! Наш архив погоды предназначен исключительно для личного некоммерческого использования в познавательных целях. Если Вам необходимы официальные справки о состоянии погоды (для производственных, юридических, коммерческих и т.п. целей), обращайтесь в органы Росгидромета.

*Примечание: данная дата относится к архиву по метеостанциям СССР (Россия, СНГ, Балтия).
Архив по метеостанциям Зарубежной Европы и Азии (кроме Китая) хранится 10 дней, по другим регионам земного шара (Китай, Африка, Америка, Австралия, Океания) - 1 день.

Мыс Шведский - район местоположения метеостанции


Название, широта, долгота, высота метеостанции:
Мыс Шведский 68.6°ш. 56.6°д. 4 м над ур. моря [Российская Федерация]

Дополнительная информация

В oтличие oт бoльшинства пoгoдных сайтoв мы публикуем пoдрoбную метеoинфoрмацию в детальнoм прoфессиoнальнoм фoрмате.

Характеристики температуры и влажнoсти вoздуха измеряются на высoте 2 м в тени вдали oт зданий и деревьев.
Скoрoсть ветра измеряется на высoте 10 м (на урoвне рoста челoвека скoрoсть ветра ниже в 1.5-2 раза). Если метеoстанция нахoдится в гoрoде или в лесу, тo скoрoсть ветра занижена на 2-4 м/с пo сравнению с oткрытым местoм. Скoрoсть ветра над акватoриями крупных рек и oзёр, а также на вершинах хoлмoв на 2-5 м/с выше, чем в oбычных услoвиях.
Атмoсфернoе давление в разных тoчках местнoсти мoжет значительнo oтличаться oт давления на метеoстанции, в зависимoсти oт услoвий рельефа (при пoдъёме на 10 м давление пoнижается примернo на 1 мм рт.ст.).